COSMOS 1275 DEB, 39951

Orbit data source: Space-Track

COSMOS 1275 DEB, 39951 is space debris in LEO originally from a launch on Thu, 04 Jun 1981 UTC launched from the Plesetsk Missile And Space Complex (PKMTR). Debris objects in space refer to the collection of defunct objects orbiting the Earth. Examples of debris include non-operational satellites, rocket bodies, and fragments generated from explosions, collisions, or faulty payload assembly.

Loading next visibility...
Identifier
39951, 1981-053NM
Orbit
LEO
Country
Flag of CISCIS
Related business
Manufacturer
Unknown
Mission
Spacecraft
Bus & Motor
Unknown
Mass
Unknown
Launch date (UTC)
1981-06-04 (45 years ago)
Launch vehicle
Unknown
Launch site
Plesetsk Missile And Space Complex (PKMTR)
Object type
Payload
Rocket body
Debris
Shape & HBR
Unknown shape, 0.1 m
Radar Cross Section
Small (<0.1 m²)

Expand to show TLE details & history
Last TLE update: 1 day ago

TLE from 1 day ago
0 COSMOS 1275 DEB
1 39951U 81053NM  26120.28930117  .00003481  00000-0  16118-2 0  9991
2 39951  82.8219 235.2931 0052547 336.2816  23.5943 14.19866093610365
Epoch: 2026-04-30T06:56Z
TLE epoch observation values (Epoch: 2026-04-30T06:56:35.621Z)
Latitude
0.00004°
Longitude
-87.09336°
Altitude
794.1 km
Speed
7.474 km/s
True Right ascension
15h 41m 10s
True Declination
0° 00' 00"
Sunlit
Object was in full shadow at epoch
Visualization orbit readout
Latitude
Unknown
Longitude
Unknown
Altitude
Unknown
Speed
Unknown
Apparent Right ascension
Unknown
Apparent Declination
Unknown
Sunlit
N/A
Visualization observer readout
Local Sidereal Time
19:50:10
Azimuth
Unknown
Elevation
Unknown
Doppler factor
Unknown
Orbital elements
Apogee altitude
860.737 km
Perigee altitude
785.058 km
Semi-major axis
7,201.034 km
Eccentricity
0.00525
Inclination
82.8219°
RAAN
235.2931°
Arg. of periapsis
336.2816°
True anomaly
23.83677°
Mean anomaly
23.5943°
Eccentric anomaly
23.71539°
Mean motion
3.55182 °/min
Orbital period
101.36 mins
BSTAR
0.0016118
Loading maneuver chart data...
Computing Atmospheric mass density...
Loading historical data...
Loading historical data...
Loading historical data...
Loading historical data...
Loading historical data...
Loading historical data...
Loading historical data...

Documentation

Showing up to 5 results
|